| time (UTC) | temp F | wind direction | speed knots | gust knots | rain 1hr in | rain 24hr in | rain mn in | humidity % | barometer mb |
| 20260503234549 | 55 | 210 | 0.0 | 0.0 | 0.00 | 0.00 | 0.00 | 85 | 1007.5 |
| 20260503233044 | 55 | 198 | 0.0 | 0.0 | 0.00 | 0.00 | 0.00 | 85 | 1007.3 |
| 20260503231544 | 56 | 205 | 0.0 | 0.0 | 0.00 | 0.00 | 0.00 | 85 | 1007.4 |
| 20260503230044 | 57 | 217 | 0.0 | 0.0 | 0.00 | 0.00 | 0.00 | 84 | 1007.2 |
| 20260503224542 | 57 | 206 | 0.0 | 0.0 | 0.00 | 0.00 | 0.00 | 84 | 1007.2 |
| 20260503223042 | 57 | 161 | 0.0 | 1.7 | 0.00 | 0.00 | 0.00 | 84 | 1007.2 |
| 20260503221541 | 57 | 223 | 0.0 | 2.6 | 0.00 | 0.00 | 0.00 | 84 | 1007.1 |
| 20260503220048 | 58 | 269 | 0.0 | 0.0 | 0.00 | 0.00 | 0.00 | 83 | 1007.2 |
| 20260503214540 | 58 | 227 | 0.0 | 0.0 | 0.00 | 0.00 | 0.00 | 83 | 1007.1 |
| 20260503213042 | 58 | 218 | 0.0 | 0.0 | 0.00 | 0.00 | 0.00 | 83 | 1007.2 |
| 20260503211539 | 58 | 176 | 0.0 | 1.7 | 0.00 | 0.00 | 0.00 | 84 | 1007.1 |
| 20260503210038 | 57 | 122 | 0.0 | 0.0 | 0.00 | 0.00 | 0.00 | 87 | 1007.0 |
| 20260503204534 | 56 | 198 | 0.0 | 0.0 | 0.00 | 0.00 | 0.00 | 86 | 1007.1 |
| 20260503203034 | 56 | 93 | 0.0 | 0.0 | 0.00 | 0.00 | 0.00 | 85 | 1007.3 |
| 20260503201534 | 57 | 269 | 0.0 | 0.0 | 0.00 | 0.00 | 0.00 | 86 | 1007.3 |
| 20260503200032 | 56 | 242 | 0.0 | 0.0 | 0.00 | 0.00 | 0.00 | 86 | 1007.4 |
| 20260503194531 | 57 | 195 | 0.0 | 0.9 | 0.00 | 0.00 | 0.00 | 86 | 1007.3 |
| 20260503193035 | 56 | 254 | 0.0 | 0.0 | 0.00 | 0.00 | 0.00 | 85 | 1007.4 |
| 20260503191530 | 56 | 167 | 0.0 | 0.0 | 0.00 | 0.00 | 0.00 | 86 | 1007.3 |
| 20260503190031 | 56 | 223 | 0.0 | 0.0 | 0.00 | 0.00 | 0.00 | 87 | 1007.3 |
| 20260503184526 | 55 | 255 | 0.0 | 0.9 | 0.00 | 0.00 | 0.00 | 88 | 1007.3 |
| 20260503183036 | 55 | 37 | 0.0 | 0.0 | 0.00 | 0.00 | 0.00 | 88 | 1007.4 |
| 20260503181523 | 55 | 206 | 0.0 | 0.0 | 0.00 | 0.00 | 0.00 | 89 | 1007.3 |
| 20260503180022 | 54 | 198 | 0.0 | 0.0 | 0.00 | 0.00 | 0.00 | 90 | 1007.3 |
| 20260503174519 | 54 | 170 | 0.0 | 0.0 | 0.00 | 0.00 | 0.00 | 91 | 1007.3 |
| 20260503173018 | 54 | 227 | 0.0 | 0.0 | 0.00 | 0.00 | 0.00 | 92 | 1007.2 |
| 20260503171516 | 53 | 208 | 0.0 | 3.5 | 0.00 | 0.00 | 0.00 | 93 | 1007.2 |
| 20260503081540 | 51 | 250 | 0.0 | 0.0 | 0.00 | 0.01 | 0.00 | 94 | 1006.0 |
| 20260503071528 | 51 | 250 | 0.0 | 0.0 | 0.00 | 0.01 | 0.00 | 94 | 1006.4 |
| 20260503054521 | 51 | 250 | 0.0 | 0.0 | 0.00 | 0.01 | 0.01 | 93 | 1006.8 |
| 20260503053020 | 51 | 250 | 0.0 | 0.0 | 0.00 | 0.01 | 0.01 | 93 | 1006.8 |
| 20260503051520 | 51 | 250 | 0.0 | 0.0 | 0.00 | 0.01 | 0.01 | 93 | 1006.8 |
| 20260503050029 | 51 | 250 | 0.0 | 0.0 | 0.00 | 0.01 | 0.01 | 93 | 1006.8 |
| 20260503044518 | 51 | 250 | 0.0 | 0.0 | 0.00 | 0.01 | 0.01 | 92 | 1006.7 |
| 20260503043019 | 51 | 250 | 0.0 | 0.0 | 0.00 | 0.01 | 0.01 | 92 | 1006.6 |
| 20260503041518 | 51 | 249 | 0.0 | 0.0 | 0.00 | 0.01 | 0.01 | 92 | 1006.6 |
| 20260503040019 | 51 | 247 | 0.0 | 0.0 | 0.00 | 0.01 | 0.01 | 91 | 1006.4 |
| 20260503034532 | 51 | 226 | 0.0 | 0.0 | 0.00 | 0.01 | 0.01 | 91 | 1006.4 |
| 20260503033025 | 52 | 217 | 0.0 | 0.0 | 0.00 | 0.01 | 0.01 | 90 | 1006.3 |
| 20260503031516 | 52 | 217 | 0.0 | 0.0 | 0.00 | 0.01 | 0.01 | 89 | 1006.2 |
| 20260503030014 | 52 | 304 | 0.0 | 0.0 | 0.00 | 0.01 | 0.01 | 89 | 1006.1 |
| 20260503024514 | 53 | 222 | 0.0 | 0.0 | 0.00 | 0.01 | 0.01 | 88 | 1006.1 |
| 20260503023013 | 53 | 334 | 0.0 | 0.0 | 0.00 | 0.01 | 0.01 | 87 | 1006.1 |
| 20260503021513 | 54 | 216 | 0.0 | 0.0 | 0.00 | 0.01 | 0.01 | 85 | 1006.0 |
| 20260503020012 | 55 | 217 | 0.0 | 0.0 | 0.00 | 0.01 | 0.01 | 84 | 1005.9 |
| 20260503014516 | 56 | 217 | 0.0 | 0.0 | 0.00 | 0.01 | 0.01 | 83 | 1005.8 |
| 20260503013021 | 57 | 200 | 0.0 | 0.0 | 0.00 | 0.01 | 0.01 | 84 | 1005.8 |
| 20260503011512 | 57 | 227 | 0.0 | 0.0 | 0.00 | 0.01 | 0.01 | 83 | 1005.8 |
| 20260503010010 | 57 | 227 | 0.0 | 0.0 | 0.00 | 0.01 | 0.01 | 82 | 1005.7 |
| 20260503004510 | 57 | 224 | 0.0 | 0.0 | 0.00 | 0.01 | 0.01 | 81 | 1005.7 |
| 20260503003010 | 58 | 233 | 0.0 | 0.0 | 0.00 | 0.01 | 0.01 | 80 | 1005.7 |
| 20260503001509 | 58 | 215 | 0.0 | 0.0 | 0.00 | 0.01 | 0.01 | 81 | 1005.7 |
| 20260503000013 | 59 | 236 | 0.0 | 0.0 | 0.00 | 0.01 | 0.01 | 79 | 1005.7 |